User: anonymous
Location: Voyageurs National Park
(48.5020°N, 92.9292°W)
Time: 02:08:00
(UTC-05:00)
Language:

Terra - Orbit

View from above orbital plane
View from above orbital plane
View from above satellite
View from above satellite

Ground track
Ground track

The orbit data is extracted from the following two-line orbital elements,

1 25994U 99068A   14206.83142908 -.00000593  00000-0 -12163-3 0  4652
2 25994 098.2106 281.0320 0001318 101.3117 258.8167 14.57085644776696
Epoch (UTC): 25 July 2014 19:57:15
Eccentricity: 0.0001318
inclination: 98.2106°
perigee height: 701 km
apogee height: 703 km
right ascension of ascending node: 281.0320°
argument of perigee: 101.3117°
revolutions per day: 14.57085644
mean anomaly at epoch: 258.8167°
orbit number at epoch: 77669

The dashed part of the orbit path shows where the satellite is in the earth's shadow,  

DLR